Kimball, NE

7:58 AM MDT on August 27, 2016 (GMT -0600)
Kimball Municipal-Arraj

Weather History for KIBM - September, 2013

Change the Weather History Date:

Monday, September 2, 2013

  Actual Average (KSNY) Record (KSNY)
Temperature  
Mean Temperature 73 °F 70 °F  
Max Temperature 92 °F 85 °F 99 °F (1983)
Min Temperature 54 °F 54 °F 32 °F (2006)
Degree Days  
Heating Degree Days 0 1  
Month to date heating degree days 2  
Since 1 July heating degree days 13  
Cooling Degree Days 8 6  
Month to date cooling degree days 12  
Year to date cooling degree days 754  
Growing Degree Days 23 (Base 50)    
Moisture  
Dew Point 50 °F    
Average Humidity 49    
Maximum Humidity 84    
Minimum Humidity 19    
Precipitation  
Precipitation 0.00 in 0.06 in 0.83 in (1966)
Month to date precipitation 0.12  
Year to date precipitation 15.28  
Sea Level Pressure  
Sea Level Pressure 30.12 in    
Wind  
Wind Speed 9 mph (SSE)    
Max Wind Speed 17 mph    
Max Gust Speed 25 mph    
Visibility 10 miles    
Events      
T = Trace of Precipitation, MM = Missing Value Source: NWS Daily Summary

Daily Weather History Graph

Daily Weather History Graph

Search for Another Location

Airport or City:

Trip Planner

Search our weather history database for the weather conditions in past years. The results will help you decide how hot, cold, wet, or windy it might be!

Date:

Astronomy

Sep. 02, 2013 Rise Set
Actual Time 7:22 AM CDT 8:25 PM CDT
Civil Twilight 6:54 AM CDT 8:53 PM CDT
Nautical Twilight 6:20 AM CDT 9:27 PM CDT
Astronomical Twilight 5:45 AM CDT 10:02 PM CDT
Moon 4:40 AM CDT (9/2) 6:40 PM CDT (9/2)
Length of Visible Light 13h 59m
Length of Day
13h 02m
Waning Crescent, 8% of the Moon is Illuminated
Sep 2
Waning Crescent
Sep 5
New
Sep 12
First Quarter
Sep 19
Full
Sep 26
Last Quarter

Hourly Weather History & Observations

Time (CDT) Temp. Heat Index Dew Point Humidity Pressure Visibility Wind Dir Wind Speed Gust Speed Precip Events Conditions
12:15 AM 65.8 °F - 46.6 °F 50% 30.18 in 10.0 mi South 10.4 mph - N/A   Clear
12:35 AM 64.8 °F - 47.1 °F 53% 30.17 in 10.0 mi SSE 9.2 mph - N/A   Clear
12:55 AM 64.2 °F - 47.3 °F 54% 30.18 in 10.0 mi South 10.4 mph - N/A   Clear
1:15 AM 62.8 °F - 47.3 °F 57% 30.18 in 10.0 mi SSE 9.2 mph - N/A   Clear
1:35 AM 62.4 °F - 47.3 °F 58% 30.18 in 10.0 mi SSE 9.2 mph - N/A   Clear
1:55 AM 60.3 °F - 47.3 °F 62% 30.17 in 10.0 mi SSE 5.8 mph - N/A   Clear
2:15 AM 59.0 °F - 47.3 °F 65% 30.17 in 10.0 mi SSE 5.8 mph - N/A   Clear
2:35 AM 59.9 °F - 47.3 °F 63% 30.17 in 10.0 mi SSE 5.8 mph - N/A   Clear
2:55 AM 58.6 °F - 47.7 °F 67% 30.16 in 10.0 mi SSE 6.9 mph - N/A   Clear
3:15 AM 58.1 °F - 47.8 °F 69% 30.16 in 10.0 mi SSE 5.8 mph - N/A   Clear
3:35 AM 57.6 °F - 48.2 °F 71% 30.16 in 10.0 mi SSE 5.8 mph - N/A   Clear
3:55 AM 56.7 °F - 47.8 °F 72% 30.16 in 10.0 mi SSE 5.8 mph - N/A   Clear
4:15 AM 55.8 °F - 47.3 °F 73% 30.16 in 10.0 mi SE 5.8 mph - N/A   Clear
4:35 AM 56.7 °F - 48.0 °F 73% 30.16 in 10.0 mi SSE 9.2 mph - N/A   Clear
4:55 AM 57.0 °F - 48.4 °F 73% 30.16 in 10.0 mi SE 6.9 mph - N/A   Clear
5:15 AM 57.0 °F - 48.7 °F 74% 30.15 in 10.0 mi SE 4.6 mph - N/A   Clear
5:35 AM 55.4 °F - 48.4 °F 77% 30.15 in 10.0 mi SE 6.9 mph - N/A   Clear
5:55 AM 55.4 °F - 49.1 °F 79% 30.15 in 10.0 mi SE 5.8 mph - N/A   Clear
6:15 AM 55.6 °F - 50.4 °F 83% 30.14 in 10.0 mi SE 8.1 mph - N/A   Clear
6:35 AM 55.8 °F - 50.5 °F 83% 30.15 in 10.0 mi SSE 6.9 mph - N/A   Clear
6:55 AM 55.6 °F - 50.7 °F 84% 30.15 in 10.0 mi SSE 3.5 mph - N/A   Clear
7:15 AM 54.3 °F - 49.5 °F 84% 30.15 in 10.0 mi Calm Calm - N/A   Clear
7:35 AM 55.4 °F - 50.7 °F 84% 30.15 in 10.0 mi Calm Calm - N/A   Clear
7:55 AM 54.0 °F - 48.9 °F 83% 30.16 in 10.0 mi Calm Calm - N/A   Clear
8:15 AM 57.9 °F - 51.8 °F 80% 30.16 in 10.0 mi Calm Calm - N/A   Clear
8:35 AM 61.0 °F - 53.1 °F 75% 30.17 in 10.0 mi Calm Calm - N/A   Clear
8:55 AM 63.5 °F - 53.8 °F 71% 30.16 in 10.0 mi SSE 8.1 mph - N/A   Clear
9:15 AM 65.5 °F - 53.8 °F 66% 30.16 in 10.0 mi SSE 8.1 mph - N/A   Clear
9:35 AM 68.9 °F - 54.3 °F 60% 30.17 in 10.0 mi SSE 10.4 mph - N/A   Clear
9:55 AM 70.5 °F - 54.5 °F 57% 30.16 in 10.0 mi SE 10.4 mph - N/A   Clear
10:15 AM 72.5 °F - 54.7 °F 53% 30.17 in 10.0 mi South 10.4 mph - N/A   Clear
10:35 AM 74.1 °F - 55.4 °F 52% 30.17 in 10.0 mi SSE 11.5 mph - N/A   Clear
10:55 AM 76.1 °F - 55.0 °F 48% 30.17 in 10.0 mi SSE 11.5 mph 16.1 mph N/A   Clear
11:15 AM 77.7 °F - 54.5 °F 45% 30.17 in 10.0 mi South 15.0 mph 19.6 mph N/A   Clear
11:35 AM 79.3 °F - 54.1 °F 42% 30.17 in 10.0 mi South 17.3 mph 21.9 mph N/A   Clear
11:55 AM 80.8 °F 80.5 °F 54.1 °F 40% 30.16 in 10.0 mi South 12.7 mph 20.7 mph N/A   Clear
12:15 PM 81.9 °F 81.1 °F 53.6 °F 38% 30.16 in 10.0 mi South 12.7 mph 21.9 mph N/A   Clear
12:35 PM 83.8 °F - 52.7 °F 34% 30.15 in 10.0 mi South 15.0 mph 25.3 mph N/A   Clear
12:55 PM 84.9 °F - 52.3 °F 32% 30.15 in 10.0 mi South 16.1 mph 23.0 mph N/A   Clear
1:15 PM 86.2 °F - 51.6 °F 30% 30.14 in 10.0 mi South 13.8 mph 20.7 mph N/A   Clear
1:35 PM 87.1 °F - 51.3 °F 29% 30.13 in 10.0 mi South 12.7 mph 20.7 mph N/A   Clear
1:55 PM 88.2 °F - 51.1 °F 28% 30.12 in 10.0 mi South 12.7 mph 20.7 mph N/A   Clear
2:15 PM 89.8 °F - 49.8 °F 25% 30.11 in 10.0 mi SSE 16.1 mph 20.7 mph N/A   Clear
2:35 PM 89.1 °F - 47.1 °F 23% 30.11 in 10.0 mi SSE 12.7 mph 19.6 mph N/A   Clear
2:55 PM 90.5 °F - 45.1 °F 21% 30.11 in 10.0 mi SSE 11.5 mph 20.7 mph N/A   Clear
3:15 PM 90.7 °F - 46.9 °F 22% 30.10 in 10.0 mi SSE 11.5 mph 19.6 mph N/A   Clear
3:35 PM 91.6 °F - 47.1 °F 22% 30.09 in 10.0 mi SSE 12.7 mph 23.0 mph N/A   Clear
3:55 PM 91.0 °F - 47.1 °F 22% 30.08 in 10.0 mi SE 11.5 mph 18.4 mph N/A   Clear
4:15 PM 91.9 °F - 44.8 °F 20% 30.08 in 10.0 mi SE 5.8 mph - N/A   Clear
4:35 PM 92.1 °F - 46.0 °F 20% 30.07 in 10.0 mi SSE 15.0 mph - N/A   Clear
5:15 PM 92.3 °F - 45.0 °F 19% 30.06 in 10.0 mi SSE 12.7 mph 19.6 mph N/A   Clear
5:35 PM 91.9 °F - 46.0 °F 21% 30.06 in 10.0 mi SSE 13.8 mph 20.7 mph N/A   Clear
5:55 PM 91.8 °F - 45.3 °F 20% 30.06 in 10.0 mi SSE 12.7 mph 24.2 mph N/A   Clear
6:15 PM 92.1 °F - 45.1 °F 20% 30.06 in 10.0 mi SE 15.0 mph - N/A   Clear
6:35 PM 91.6 °F - 45.5 °F 20% 30.06 in 10.0 mi SE 13.8 mph 19.6 mph N/A   Clear
6:55 PM 90.9 °F - 45.1 °F 21% 30.06 in 10.0 mi South 13.8 mph - N/A   Clear
7:15 PM 88.9 °F - 45.0 °F 22% 30.04 in 10.0 mi SE 12.7 mph - N/A   Clear
7:35 PM 86.5 °F - 46.9 °F 25% 30.04 in 10.0 mi SE 13.8 mph - N/A   Clear
7:55 PM 86.0 °F - 47.3 °F 26% 30.04 in 10.0 mi SSE 11.5 mph - N/A   Clear
8:15 PM 84.4 °F - 48.0 °F 28% 30.04 in 10.0 mi SE 12.7 mph - N/A   Clear
8:35 PM 83.3 °F - 49.3 °F 31% 30.05 in 10.0 mi SE 11.5 mph - N/A   Clear
8:55 PM 82.2 °F - 49.6 °F 32% 30.05 in 10.0 mi SE 11.5 mph - N/A   Clear
9:15 PM 81.0 °F - 50.5 °F 35% 30.07 in 10.0 mi SE 11.5 mph - N/A   Clear
9:35 PM 79.3 °F - 52.2 °F 39% 30.07 in 10.0 mi SE 12.7 mph - N/A   Clear
9:45 PM 78.8 °F - 53.6 °F 42% 30.07 in 10.0 mi SE 12.7 mph - N/A   Clear
9:55 PM 78.8 °F - 55.4 °F 44% 30.07 in 10.0 mi SSE 15.0 mph - N/A   Clear
10:15 PM 77.9 °F - 56.3 °F 47% 30.08 in 10.0 mi SSE 15.0 mph - N/A   Clear
10:35 PM 76.6 °F - 56.5 °F 50% 30.08 in 10.0 mi SSE 13.8 mph 19.6 mph N/A   Clear
10:55 PM 76.1 °F - 57.2 °F 52% 30.08 in 10.0 mi SSE 13.8 mph - N/A   Clear
11:15 PM 75.2 °F - 57.2 °F 53% 30.08 in 10.0 mi SSE 13.8 mph - N/A   Clear
11:25 PM 75.2 °F - 57.2 °F 53% 30.08 in 10.0 mi SSE 12.7 mph - N/A   Clear
11:35 PM 74.5 °F - 57.4 °F 55% 30.10 in 10.0 mi SSE 12.7 mph 18.4 mph N/A   Clear
11:55 PM 73.8 °F - 57.6 °F 57% 30.10 in 10.0 mi SSE 11.5 mph - N/A   Clear